Weather History for KCDJ - July, 2013

Change the Weather History Date:

Wednesday, July 31, 2013

  Actual Average (KIRK) Record (KIRK)
Temperature  
Mean Temperature 74 °F 76 °F  
Max Temperature 81 °F 86 °F 103 °F (1970)
Min Temperature 66 °F 65 °F 46 °F (1971)
Degree Days  
Heating Degree Days 0 0  
Month to date heating degree days 0  
Since 1 June heating degree days 17  
Since 1 July heating degree days 1  
Cooling Degree Days 10 11  
Month to date cooling degree days 313  
Year to date cooling degree days 567  
Since 1 June cooling degree days 505  
Growing Degree Days 24 (Base 50)    
Moisture  
Dew Point 65 °F    
Average Humidity 78    
Maximum Humidity 90    
Minimum Humidity 56    
Precipitation  
Precipitation 0.00 in 0.17 in 2.70 in (1985)
Month to date precipitation 4.66  
Year to date precipitation 23.59  
Sea Level Pressure  
Sea Level Pressure 30.07 in    
Wind  
Wind Speed 2 mph (North)    
Max Wind Speed 7 mph    
Max Gust Speed -    
T = Trace of Precipitation, MM = Missing Value Source: NWS Daily Summary

Daily Weather History Graph

Daily Weather History Graph

Search for Another Location

Airport or City:

Trip Planner

Search our weather history database for the weather conditions in past years. The results will help you decide how hot, cold, wet, or windy it might be!

Date:

Astronomy

Jul. 31, 2013 Rise Set
Actual Time 6:12 AM CDT 8:28 PM CDT
Civil Twilight 5:42 AM CDT 8:58 PM CDT
Nautical Twilight 5:04 AM CDT 9:35 PM CDT
Astronomical Twilight 4:23 AM CDT 10:16 PM CDT
Moon 1:08 AM CDT (7/31) 3:45 PM CDT (7/31)
Length of Visible Light 15h 16m
Length of Day
14h 15m
Waning Crescent, 31% of the Moon is Illuminated
Jul 31
Waning Crescent
Aug 6
New
Aug 14
First Quarter
Aug 20
Full
Aug 28
Last Quarter

Hourly Weather History & Observations

Time (CDT) Temp. Heat Index Dew Point Humidity Pressure Visibility Wind Dir Wind Speed Gust Speed Precip Events Conditions
12:52 AM 72.0 °F - 66.9 °F 84% 30.05 in - North 3.5 mph - N/A   Unknown
1:52 AM 71.1 °F - 66.9 °F 87% 30.04 in - Calm Calm - N/A   Unknown
2:52 AM 70.0 °F - 66.9 °F 90% 30.06 in - Calm Calm - N/A   Unknown
3:52 AM 70.0 °F - 66.9 °F 90% 30.04 in - Calm Calm - N/A   Unknown
4:52 AM 70.0 °F - 66.0 °F 87% 30.05 in - Calm Calm - N/A   Unknown
5:52 AM 68.0 °F - 64.9 °F 90% 30.05 in - NNE 3.5 mph - N/A   Unknown
6:52 AM 68.0 °F - 64.9 °F 90% 30.08 in - Variable 3.5 mph - N/A   Unknown
7:52 AM 69.1 °F - 64.9 °F 87% 30.09 in - Variable 4.6 mph - N/A   Unknown
8:52 AM 71.1 °F - 64.9 °F 81% 30.09 in - Calm Calm - N/A   Unknown
9:52 AM 71.1 °F - 64.9 °F 81% 30.11 in - Calm Calm - N/A   Unknown
10:52 AM 72.0 °F - 64.9 °F 78% 30.11 in - Variable 4.6 mph - N/A   Unknown
11:52 AM 73.0 °F - 64.0 °F 73% 30.11 in - NNW 4.6 mph - N/A   Unknown
12:52 PM 73.9 °F - 64.9 °F 73% 30.09 in - North 6.9 mph - N/A   Unknown
1:52 PM 77.0 °F - 64.0 °F 64% 30.09 in - NNE 6.9 mph - N/A   Unknown
2:52 PM 77.0 °F - 64.0 °F 64% 30.08 in - North 5.8 mph - N/A   Unknown
3:52 PM 80.1 °F 81.7 °F 64.0 °F 58% 30.07 in - North 6.9 mph - N/A   Unknown
4:52 PM 80.1 °F 81.7 °F 64.0 °F 58% 30.06 in - Calm Calm - N/A   Unknown
5:52 PM 81.0 °F 82.5 °F 64.0 °F 56% 30.04 in - Variable 3.5 mph - N/A   Unknown
6:52 PM 80.1 °F 81.9 °F 64.9 °F 60% 30.03 in - Calm Calm - N/A   Unknown
7:52 PM 75.9 °F - 66.9 °F 74% 30.04 in - Calm Calm - N/A   Unknown
8:52 PM 71.1 °F - 66.0 °F 84% 30.04 in - Calm Calm - N/A   Unknown
9:52 PM 69.1 °F - 66.0 °F 90% 30.05 in - Calm Calm - N/A   Unknown
10:52 PM 68.0 °F - 64.0 °F 87% 30.06 in - Calm Calm - N/A   Unknown
11:52 PM 66.9 °F - 64.0 °F 90% 30.07 in - Calm Calm - N/A   Unknown